Location: ??
(35.5052°N, 139.7262°E)
Time: 03:35:49
(UTC+00:00)

ATLAS 5 CENTAUR R/B - Pass Details

Date: 20 June 2021
Orbit: 510 x 1148 km, 63.4° (Epoch: 23 July)

Event Time Altitude Azimuth Distance (km) Brightness Sun altitude
Exits shadow 16:01:29 37° 33° (NNE) 860 2.7 -28.2°
Drops below altitude 10° 16:04:05 10° 32° (NNE) 1,873 5.0 -28.0°
Sets 16:06:26 0° 32° (NNE) 2,851 6.2 -27.8°
